2020-03-13 00:08:15 r, 00.00m,0000563184Hz,0000000000c,0000000.000s, 016.1C,00002195
2020-03-13 00:18:15 r, 00.00m,0000563029Hz,0000000000c,0000000.000s, 015.4C,00002195
2020-03-13 00:28:16 r, 00.00m,0000562866Hz,0000000000c,0000000.000s, 015.4C,00002195
2020-03-13 00:38:18 r, 00.00m,0000562914Hz,0000000000c,0000000.000s, 014.5C,00002195
2020-03-13 00:48:15 r, 00.00m,0000562750Hz,0000000000c,0000000.000s, 014.1C,00002195
2020-03-13 00:58:15 r, 00.00m,0000562837Hz,0000000000c,0000000.000s, 014.1C,00002195
2020-03-13 01:08:18 r, 00.00m,0000562845Hz,0000000000c,0000000.000s, 014.5C,00002195
2020-03-13 01:18:15 r, 00.00m,0000562819Hz,0000000000c,0000000.000s, 014.5C,00002195
2020-03-13 01:28:15 r, 00.00m,0000562767Hz,0000000000c,0000000.000s, 014.1C,00002195
2020-03-13 01:38:15 r, 00.00m,0000562661Hz,0000000000c,0000000.000s, 013.5C,00002195
2020-03-13 01:48:17 r, 00.00m,0000562658Hz,0000000000c,0000000.000s, 013.8C,00002195
2020-03-13 01:58:16 r, 00.00m,0000562678Hz,0000000000c,0000000.000s, 013.2C,00002195
2020-03-13 02:08:17 r, 00.00m,0000562602Hz,0000000000c,0000000.000s, 013.2C,00002195
2020-03-13 02:18:15 r, 00.00m,0000562652Hz,0000000000c,0000000.000s, 013.2C,00002195
2020-03-13 02:28:17 r, 00.00m,0000562576Hz,0000000000c,0000000.000s, 012.8C,00002195
2020-03-13 02:38:16 r, 00.00m,0000562550Hz,0000000000c,0000000.000s, 012.8C,00002195
2020-03-13 02:48:15 r, 00.00m,0000562421Hz,0000000000c,0000000.000s, 012.5C,00002195
2020-03-13 02:58:16 r, 00.00m,0000562441Hz,0000000000c,0000000.000s, 012.2C,00002195
2020-03-13 03:08:15 r, 00.00m,0000562222Hz,0000000000c,0000000.000s, 011.9C,00002195
2020-03-13 03:18:15 r, 00.00m,0000562178Hz,0000000000c,0000000.000s, 011.2C,00002195
2020-03-13 03:28:15 r, 00.00m,0000562267Hz,0000000000c,0000000.000s, 011.2C,00002195
2020-03-13 03:38:18 r, 00.00m,0000562252Hz,0000000000c,0000000.000s, 010.9C,00002195
2020-03-13 03:48:15 r, 00.00m,0000480034Hz,0000000000c,0000000.000s, 010.3C,00002195
2020-03-13 03:58:18 r, 06.04m,0000340533Hz,0000000000c,0000000.000s, 009.9C,00002195
2020-03-13 04:08:16 r, 06.49m,0000225346Hz,0000000000c,0000000.000s, 009.3C,00002195
2020-03-13 04:18:15 r, 07.04m,0000135223Hz,0000000000c,0000000.000s, 009.0C,00002195
2020-03-13 04:28:18 r, 07.92m,0000060328Hz,0000000000c,0000000.000s, 008.3C,00002195
2020-03-13 04:38:15 r, 09.15m,0000019525Hz,0000000000c,0000000.000s, 008.0C,00002195
2020-03-13 04:48:15 r, 10.86m,0000004021Hz,0000000000c,0000000.000s, 008.0C,00002195
2020-03-13 04:58:15 r, 12.89m,0000000627Hz,0000000000c,0000000.000s, 007.7C,00002195
2020-03-13 05:08:18 r, 15.03m,0000000087Hz,0000005360c,0000000.012s, 007.7C,00002195
2020-03-13 05:18:15 r, 16.74m,0000000018Hz,0000025791c,0000000.056s, 007.4C,00002195
2020-03-13 05:28:17 r, 17.52m,0000000008Hz,0000053027c,0000000.115s, 007.4C,00002195
2020-03-13 05:38:15 r, 17.80m,0000000007Hz,0000069106c,0000000.150s, 007.4C,00002195
2020-03-13 05:48:15 r, 17.89m,0000000006Hz,0000074900c,0000000.163s, 007.4C,00002195
2020-03-13 05:58:18 r, 17.91m,0000000006Hz,0000075880c,0000000.165s, 007.4C,00002195
2020-03-13 06:08:16 r, 17.91m,0000000006Hz,0000075957c,0000000.165s, 007.0C,00002195
2020-03-13 06:18:15 r, 17.91m,0000000006Hz,0000076767c,0000000.167s, 007.0C,00002195
2020-03-13 06:28:15 r, 17.91m,0000000006Hz,0000076790c,0000000.167s, 007.0C,00002195
2020-03-13 06:38:16 r, 17.91m,0000000006Hz,0000076213c,0000000.165s, 007.0C,00002195
2020-03-13 06:48:15 r, 17.91m,0000000006Hz,0000075942c,0000000.165s, 007.0C,00002195
2020-03-13 06:58:15 r, 17.92m,0000000006Hz,0000076896c,0000000.167s, 007.0C,00002195
2020-03-13 07:08:17 r, 17.94m,0000000005Hz,0000078838c,0000000.171s, 007.0C,00002195
2020-03-13 07:18:16 r, 17.94m,0000000005Hz,0000078717c,0000000.171s, 007.0C,00002195
2020-03-13 07:28:15 r, 17.94m,0000000006Hz,0000077887c,0000000.169s, 006.7C,00002195
2020-03-13 07:38:18 r, 17.90m,0000000006Hz,0000075753c,0000000.164s, 006.7C,00002195
2020-03-13 07:48:15 r, 17.85m,0000000007Hz,0000071909c,0000000.156s, 006.7C,00002195
2020-03-13 07:58:17 r, 17.88m,0000000006Hz,0000074167c,0000000.161s, 006.7C,00002195
2020-03-13 08:08:16 r, 17.91m,0000000006Hz,0000076081c,0000000.165s, 006.7C,00002195
2020-03-13 08:18:15 r, 17.96m,0000000006Hz,0000079395c,0000000.172s, 006.7C,00002195
2020-03-13 08:28:18 r, 17.97m,0000000006Hz,0000080440c,0000000.175s, 006.7C,00002195
2020-03-13 08:38:15 r, 17.99m,0000000006Hz,0000082235c,0000000.178s, 006.7C,00002195
2020-03-13 08:48:15 r, 17.99m,0000000006Hz,0000081858c,0000000.178s, 006.4C,00002195
2020-03-13 08:58:15 r, 18.00m,0000000005Hz,0000082603c,0000000.179s, 006.4C,00002195
2020-03-13 09:08:16 r, 18.00m,0000000006Hz,0000082768c,0000000.180s, 006.4C,00002195
2020-03-13 09:18:15 r, 18.01m,0000000005Hz,0000083716c,0000000.182s, 006.1C,00002195
2020-03-13 09:28:15 r, 18.03m,0000000005Hz,0000084526c,0000000.183s, 006.1C,00002195
2020-03-13 09:38:16 r, 18.04m,0000000005Hz,0000085538c,0000000.186s, 006.1C,00002195
2020-03-13 09:48:15 r, 18.05m,0000000006Hz,0000086137c,0000000.187s, 005.8C,00002195
2020-03-13 09:58:15 r, 18.03m,0000000005Hz,0000084633c,0000000.184s, 005.8C,00002195
2020-03-13 10:08:15 r, 18.05m,0000000006Hz,0000086419c,0000000.188s, 005.8C,00002195
2020-03-13 10:18:16 r, 18.05m,0000000005Hz,0000086237c,0000000.187s, 005.4C,00002195
2020-03-13 10:28:15 r, 18.03m,0000000005Hz,0000085444c,0000000.185s, 005.4C,00002195
2020-03-13 10:38:15 r, 18.03m,0000000005Hz,0000084563c,0000000.184s, 005.4C,00002195
2020-03-13 10:48:15 r, 18.02m,0000000006Hz,0000084406c,0000000.183s, 005.4C,00002195
2020-03-13 10:58:18 r, 18.02m,0000000006Hz,0000084138c,0000000.183s, 005.4C,00002195
2020-03-13 11:08:16 r, 18.01m,0000000006Hz,0000083592c,0000000.181s, 005.4C,00002195
2020-03-13 11:18:18 r, 18.01m,0000000005Hz,0000083421c,0000000.181s, 005.4C,00002195
2020-03-13 11:28:15 r, 18.00m,0000000006Hz,0000082536c,0000000.179s, 005.4C,00002195
2020-03-13 11:38:17 r, 17.99m,0000000006Hz,0000082427c,0000000.179s, 005.1C,00002195
2020-03-13 11:48:16 r, 17.99m,0000000006Hz,0000081663c,0000000.177s, 005.1C,00002195
2020-03-13 11:58:15 r, 17.97m,0000000006Hz,0000080644c,0000000.175s, 005.1C,00002195
2020-03-13 12:08:18 r, 17.96m,0000000006Hz,0000079619c,0000000.173s, 005.1C,00002195
2020-03-13 12:18:15 r, 17.93m,0000000006Hz,0000077493c,0000000.168s, 004.8C,00002195
2020-03-13 12:28:15 r, 17.93m,0000000006Hz,0000077483c,0000000.168s, 004.8C,00002195
2020-03-13 12:38:15 r, 17.93m,0000000006Hz,0000077783c,0000000.169s, 004.8C,00002195
2020-03-13 12:48:16 r, 17.89m,0000000006Hz,0000074999c,0000000.163s, 004.8C,00002195
2020-03-13 12:58:15 r, 17.91m,0000000006Hz,0000076504c,0000000.166s, 004.8C,00002195
2020-03-13 13:08:16 r, 17.91m,0000000006Hz,0000076066c,0000000.165s, 004.8C,00002195
2020-03-13 13:18:17 r, 17.91m,0000000006Hz,0000075826c,0000000.165s, 004.8C,00002195
2020-03-13 13:28:15 r, 17.93m,0000000006Hz,0000077704c,0000000.169s, 004.5C,00002195
2020-03-13 13:38:17 r, 17.88m,0000000006Hz,0000074074c,0000000.161s, 004.5C,00002195
2020-03-13 13:48:15 r, 17.89m,0000000006Hz,0000074862c,0000000.162s, 004.5C,00002195
2020-03-13 13:58:17 r, 17.86m,0000000007Hz,0000073098c,0000000.159s, 004.5C,00002195
2020-03-13 14:08:15 r, 17.88m,0000000006Hz,0000073889c,0000000.160s, 004.5C,00002195
2020-03-13 14:18:15 r, 17.89m,0000000006Hz,0000074693c,0000000.162s, 004.1C,00002195
2020-03-13 14:28:15 r, 17.86m,0000000007Hz,0000072848c,0000000.158s, 004.1C,00002195
2020-03-13 14:38:18 r, 17.86m,0000000006Hz,0000072942c,0000000.158s, 004.1C,00002195
2020-03-13 14:48:15 r, 17.88m,0000000006Hz,0000073856c,0000000.160s, 004.1C,00002195
2020-03-13 14:58:15 r, 17.88m,0000000006Hz,0000073957c,0000000.160s, 004.1C,00002195
2020-03-13 15:08:16 r, 17.79m,0000000007Hz,0000068259c,0000000.148s, 003.8C,00002195
2020-03-13 15:18:17 r, 17.75m,0000000007Hz,0000065327c,0000000.142s, 003.8C,00002195
2020-03-13 15:28:16 r, 17.74m,0000000007Hz,0000065180c,0000000.141s, 003.8C,00002195
2020-03-13 15:38:15 r, 17.61m,0000000008Hz,0000057569c,0000000.125s, 003.8C,00002195
2020-03-13 15:48:18 r, 17.11m,0000000012Hz,0000036489c,0000000.079s, 003.8C,00002195
2020-03-13 15:58:15 r, 15.83m,0000000041Hz,0000011245c,0000000.024s, 003.8C,00002195
2020-03-13 16:08:15 r, 13.77m,0000000276Hz,0000000000c,0000000.000s, 003.8C,00002195
2020-03-13 16:18:15 r, 11.78m,0000001728Hz,0000000000c,0000000.000s, 003.5C,00002195
2020-03-13 16:28:16 r, 09.85m,0000010274Hz,0000000000c,0000000.000s, 003.5C,00002195
2020-03-13 16:38:15 r, 08.39m,0000039378Hz,0000000000c,0000000.000s, 003.5C,00002195
2020-03-13 16:48:16 r, 07.45m,0000093494Hz,0000000000c,0000000.000s, 003.5C,00002195
2020-03-13 16:58:15 r, 06.76m,0000176519Hz,0000000000c,0000000.000s, 003.5C,00002195
2020-03-13 17:08:18 r, 06.22m,0000291805Hz,0000000000c,0000000.000s, 003.5C,00002195
2020-03-13 17:18:16 r, 00.00m,0000561146Hz,0000000000c,0000000.000s, 003.8C,00002195
2020-03-13 17:28:16 r, 00.00m,0000561189Hz,0000000000c,0000000.000s, 004.1C,00002195
2020-03-13 17:38:16 r, 00.00m,0000561266Hz,0000000000c,0000000.000s, 004.5C,00002195
2020-03-13 17:48:15 r, 00.00m,0000561472Hz,0000000000c,0000000.000s, 004.8C,00002195
2020-03-13 17:58:16 r, 00.00m,0000561517Hz,0000000000c,0000000.000s, 005.1C,00002195
2020-03-13 18:08:15 r, 00.00m,0000561437Hz,0000000000c,0000000.000s, 005.4C,00002195
2020-03-13 18:18:18 r, 00.00m,0000561674Hz,0000000000c,0000000.000s, 006.4C,00002195
2020-03-13 18:28:15 r, 00.00m,0000561788Hz,0000000000c,0000000.000s, 007.0C,00002195
2020-03-13 18:38:17 r, 00.00m,0000561841Hz,0000000000c,0000000.000s, 008.0C,00002195
2020-03-13 18:48:16 r, 00.00m,0000562007Hz,0000000000c,0000000.000s, 009.0C,00002195
2020-03-13 18:58:16 r, 00.00m,0000562204Hz,0000000000c,0000000.000s, 009.6C,00002195
2020-03-13 19:08:18 r, 00.00m,0000562189Hz,0000000000c,0000000.000s, 010.3C,00002195
2020-03-13 19:18:16 r, 00.00m,0000562361Hz,0000000000c,0000000.000s, 010.9C,00002195
2020-03-13 19:28:16 r, 00.00m,0000562466Hz,0000000000c,0000000.000s, 011.6C,00002195
2020-03-13 19:38:16 r, 00.00m,0000562502Hz,0000000000c,0000000.000s, 011.9C,00002195
2020-03-13 19:48:16 r, 00.00m,0000562552Hz,0000000000c,0000000.000s, 011.9C,00002195
2020-03-13 19:58:16 r, 00.00m,0000562586Hz,0000000000c,0000000.000s, 012.2C,00002195
2020-03-13 20:08:16 r, 00.00m,0000562634Hz,0000000000c,0000000.000s, 012.5C,00002195
2020-03-13 20:18:16 r, 00.00m,0000562774Hz,0000000000c,0000000.000s, 012.8C,00002195
2020-03-13 20:28:15 r, 00.00m,0000562767Hz,0000000000c,0000000.000s, 013.5C,00002195
2020-03-13 20:38:17 r, 00.00m,0000562958Hz,0000000000c,0000000.000s, 014.1C,00002195
2020-03-13 20:48:16 r, 00.00m,0000563023Hz,0000000000c,0000000.000s, 014.8C,00002195
2020-03-13 20:58:16 r, 00.00m,0000563128Hz,0000000000c,0000000.000s, 015.1C,00002195
2020-03-13 21:08:16 r, 00.00m,0000563110Hz,0000000000c,0000000.000s, 015.7C,00002195
2020-03-13 21:18:16 r, 00.00m,0000563180Hz,0000000000c,0000000.000s, 016.4C,00002195
2020-03-13 21:28:16 r, 00.00m,0000563221Hz,0000000000c,0000000.000s, 016.7C,00002195
2020-03-13 21:38:16 r, 00.00m,0000563277Hz,0000000000c,0000000.000s, 017.4C,00002195
2020-03-13 21:48:16 r, 00.00m,0000563393Hz,0000000000c,0000000.000s, 018.0C,00002195
2020-03-13 21:58:18 r, 00.00m,0000563494Hz,0000000000c,0000000.000s, 019.0C,00002195
2020-03-13 22:08:16 r, 00.00m,0000563632Hz,0000000000c,0000000.000s, 019.6C,00002195
2020-03-13 22:18:17 r, 00.00m,0000563589Hz,0000000000c,0000000.000s, 019.9C,00002195
2020-03-13 22:28:16 r, 00.00m,0000563520Hz,0000000000c,0000000.000s, 019.3C,00002195
2020-03-13 22:38:17 r, 00.00m,0000563603Hz,0000000000c,0000000.000s, 019.3C,00002195
2020-03-13 22:48:16 r, 00.00m,0000563479Hz,0000000000c,0000000.000s, 019.3C,00002195
2020-03-13 22:58:16 r, 00.00m,0000563525Hz,0000000000c,0000000.000s, 019.3C,00002195
2020-03-13 23:08:16 r, 00.00m,0000563437Hz,0000000000c,0000000.000s, 019.3C,00002195
2020-03-13 23:18:16 r, 00.00m,0000563446Hz,0000000000c,0000000.000s, 019.6C,00002195
2020-03-13 23:28:16 r, 00.00m,0000563653Hz,0000000000c,0000000.000s, 020.3C,00002195
2020-03-13 23:38:16 r, 00.00m,0000563681Hz,0000000000c,0000000.000s, 020.9C,00002195
2020-03-13 23:48:16 r, 00.00m,0000563647Hz,0000000000c,0000000.000s, 020.9C,00002195
2020-03-13 23:58:16 r, 00.00m,0000563783Hz,0000000000c,0000000.000s, 020.9C,00002195
